Time,TemperatureF,DewpointF,PressureIn,WindDirection,WindDirectionDegrees,WindSpeedMPH,WindSpeedGustMPH,Humidity,HourlyPrecipIn,Conditions,Clouds,dailyrainin,SoftwareType,DateUTC
2013-03-04 00:06:00,22.3,19.0,30.16,WSW,255,0.0,0.0,88,0.00,,,0.00,weatherlink.com 1.10,2013-03-04 05:06:00,
2013-03-04 00:21:00,21.6,19.0,30.16,WSW,254,0.0,0.0,89,0.00,,,0.00,weatherlink.com 1.10,2013-03-04 05:21:00,
2013-03-04 00:36:00,21.3,19.0,30.17,WSW,255,0.0,0.0,90,0.00,,,0.00,weatherlink.com 1.10,2013-03-04 05:36:00,
2013-03-04 00:51:00,21.1,19.0,30.17,WSW,255,0.0,0.0,90,0.00,,,0.00,weatherlink.com 1.10,2013-03-04 05:51:00,
2013-03-04 01:21:00,20.2,18.0,30.18,WSW,255,0.0,0.0,92,0.00,,,0.00,weatherlink.com 1.10,2013-03-04 06:21:00,
2013-03-04 01:36:00,20.1,18.0,30.18,WSW,255,0.0,0.0,92,0.00,,,0.00,weatherlink.com 1.10,2013-03-04 06:36:00,
2013-03-04 01:51:00,20.1,18.0,30.18,WSW,254,0.0,0.0,93,0.00,,,0.00,weatherlink.com 1.10,2013-03-04 06:51:00,
2013-03-04 02:06:00,20.2,19.0,30.18,WSW,255,0.0,0.0,93,0.00,,,0.00,weatherlink.com 1.10,2013-03-04 07:06:00,
2013-03-04 02:21:00,20.1,18.0,30.18,WSW,255,0.0,0.0,93,0.00,,,0.00,weatherlink.com 1.10,2013-03-04 07:21:00,
2013-03-04 02:36:00,20.2,19.0,30.19,West,259,0.0,0.0,93,0.00,,,0.00,weatherlink.com 1.10,2013-03-04 07:36:00,
2013-03-04 02:51:00,20.9,19.0,30.19,West,260,0.0,1.0,93,0.00,,,0.00,weatherlink.com 1.10,2013-03-04 07:51:00,
2013-03-04 03:06:00,21.2,20.0,30.19,WSW,242,0.0,0.0,93,0.00,,,0.00,weatherlink.com 1.10,2013-03-04 08:06:00,
2013-03-04 03:21:00,20.9,19.0,30.19,WSW,242,0.0,0.0,92,0.00,,,0.00,weatherlink.com 1.10,2013-03-04 08:21:00,
2013-03-04 03:36:00,20.5,19.0,30.20,WSW,242,0.0,0.0,92,0.00,,,0.00,weatherlink.com 1.10,2013-03-04 08:36:00,
2013-03-04 03:51:00,20.1,18.0,30.20,WSW,241,0.0,0.0,93,0.00,,,0.00,weatherlink.com 1.10,2013-03-04 08:51:00,
2013-03-04 04:06:00,20.2,19.0,30.19,WSW,242,0.0,0.0,93,0.00,,,0.00,weatherlink.com 1.10,2013-03-04 09:06:00,
2013-03-04 04:21:00,20.0,18.0,30.19,WSW,243,0.0,0.0,93,0.00,,,0.00,weatherlink.com 1.10,2013-03-04 09:21:00,
2013-03-04 04:36:00,19.7,18.0,30.20,WSW,243,0.0,0.0,92,0.00,,,0.00,weatherlink.com 1.10,2013-03-04 09:36:00,
2013-03-04 04:51:00,19.5,18.0,30.20,WSW,243,0.0,0.0,92,0.00,,,0.00,weatherlink.com 1.10,2013-03-04 09:51:00,
2013-03-04 05:05:00,19.4,18.0,30.21,WSW,243,0.0,0.0,93,0.00,,,0.00,weatherlink.com 1.10,2013-03-04 10:05:00,
2013-03-04 05:20:00,19.6,18.0,30.21,WSW,243,0.0,0.0,93,0.00,,,0.00,weatherlink.com 1.10,2013-03-04 10:20:00,
2013-03-04 05:35:00,19.6,18.0,30.22,WSW,243,0.0,0.0,93,0.00,,,0.00,weatherlink.com 1.10,2013-03-04 10:35:00,
2013-03-04 05:51:00,19.2,17.0,30.22,WSW,243,0.0,0.0,92,0.00,,,0.00,weatherlink.com 1.10,2013-03-04 10:51:00,
2013-03-04 06:06:00,19.0,17.0,30.22,WSW,243,0.0,0.0,93,0.00,,,0.00,weatherlink.com 1.10,2013-03-04 11:06:00,
2013-03-04 06:21:00,19.1,17.0,30.23,WSW,243,0.0,0.0,93,0.00,,,0.00,weatherlink.com 1.10,2013-03-04 11:21:00,
2013-03-04 06:36:00,19.1,17.0,30.23,WSW,243,0.0,0.0,93,0.00,,,0.00,weatherlink.com 1.10,2013-03-04 11:36:00,
2013-03-04 06:51:00,18.7,17.0,30.23,WSW,243,0.0,0.0,93,0.00,,,0.00,weatherlink.com 1.10,2013-03-04 11:51:00,
2013-03-04 07:06:00,18.8,17.0,30.23,WSW,255,0.0,0.0,94,0.00,,,0.00,weatherlink.com 1.10,2013-03-04 12:06:00,
2013-03-04 07:21:00,19.1,18.0,30.23,WSW,255,0.0,0.0,94,0.00,,,0.00,weatherlink.com 1.10,2013-03-04 12:21:00,
2013-03-04 07:36:00,19.8,18.0,30.23,WSW,255,0.0,0.0,94,0.00,,,0.00,weatherlink.com 1.10,2013-03-04 12:36:00,
2013-03-04 07:58:00,22.2,20.7,30.24,WSW,255,0.0,0.0,94,0.00,,,0.00,Wunderground v.1.15,2013-03-04 12:58:00,
2013-03-04 08:06:00,24.7,23.0,30.24,WSW,255,0.0,0.0,93,0.00,,,0.00,weatherlink.com 1.10,2013-03-04 13:06:00,
2013-03-04 08:21:00,24.9,22.0,30.24,WSW,252,0.0,0.0,90,0.00,,,0.00,weatherlink.com 1.10,2013-03-04 13:21:00,
2013-03-04 08:36:00,25.9,23.0,30.24,WSW,252,0.0,0.0,89,0.00,,,0.00,weatherlink.com 1.10,2013-03-04 13:36:00,
2013-03-04 08:51:00,27.4,24.0,30.24,WSW,252,0.0,0.0,87,0.00,,,0.00,weatherlink.com 1.10,2013-03-04 13:51:00,
2013-03-04 09:06:00,30.3,25.0,30.24,SSE,156,0.0,0.0,81,0.00,,,0.00,weatherlink.com 1.10,2013-03-04 14:06:00,
2013-03-04 09:22:00,31.5,24.0,30.24,SE,145,0.0,0.0,75,0.00,,,0.00,weatherlink.com 1.10,2013-03-04 14:22:00,
2013-03-04 09:37:00,32.6,25.0,30.23,SE,135,0.0,1.0,74,0.00,,,0.00,weatherlink.com 1.10,2013-03-04 14:37:00,
2013-03-04 09:52:00,32.8,24.0,30.23,South,187,2.0,3.0,71,0.00,,,0.00,weatherlink.com 1.10,2013-03-04 14:52:00,
2013-03-04 10:07:00,34.4,26.0,30.23,South,191,2.0,3.0,70,0.00,,,0.00,weatherlink.com 1.10,2013-03-04 15:07:00,
2013-03-04 10:22:00,34.4,24.0,30.23,ESE,120,0.0,4.0,66,0.00,,,0.00,weatherlink.com 1.10,2013-03-04 15:22:00,
2013-03-04 10:37:00,34.9,23.0,30.22,SSW,210,3.0,5.0,61,0.00,,,0.00,weatherlink.com 1.10,2013-03-04 15:37:00,
2013-03-04 10:52:00,35.4,22.0,30.22,SE,134,0.0,5.0,59,0.00,,,0.00,weatherlink.com 1.10,2013-03-04 15:52:00,
2013-03-04 11:07:00,35.1,22.0,30.21,East,85,3.0,5.0,59,0.00,,,0.00,weatherlink.com 1.10,2013-03-04 16:07:00,
2013-03-04 11:22:00,36.2,23.0,30.21,ESE,107,2.0,4.0,58,0.00,,,0.00,weatherlink.com 1.10,2013-03-04 16:22:00,
2013-03-04 11:37:00,37.2,23.0,30.21,ESE,123,2.0,6.0,56,0.00,,,0.00,weatherlink.com 1.10,2013-03-04 16:37:00,
2013-03-04 11:52:00,37.2,23.0,30.20,ESE,112,3.0,5.0,57,0.00,,,0.00,weatherlink.com 1.10,2013-03-04 16:52:00,
2013-03-04 12:07:00,37.7,23.0,30.20,ESE,105,0.0,6.0,55,0.00,,,0.00,weatherlink.com 1.10,2013-03-04 17:07:00,
2013-03-04 12:22:00,38.0,23.0,30.19,SSE,161,1.0,5.0,56,0.00,,,0.00,weatherlink.com 1.10,2013-03-04 17:22:00,
2013-03-04 12:37:00,38.4,24.0,30.19,SW,232,3.0,6.0,56,0.00,,,0.00,weatherlink.com 1.10,2013-03-04 17:37:00,
2013-03-04 12:52:00,39.5,24.0,30.18,South,188,2.0,5.0,55,0.00,,,0.00,weatherlink.com 1.10,2013-03-04 17:52:00,
2013-03-04 13:07:00,39.9,23.0,30.17,SE,146,3.0,6.0,51,0.00,,,0.00,weatherlink.com 1.10,2013-03-04 18:07:00,
2013-03-04 13:22:00,40.5,23.0,30.16,South,172,1.0,4.0,51,0.00,,,0.00,weatherlink.com 1.10,2013-03-04 18:22:00,
2013-03-04 13:37:00,41.1,24.0,30.15,SE,128,0.0,5.0,52,0.00,,,0.00,weatherlink.com 1.10,2013-03-04 18:37:00,
2013-03-04 13:52:00,41.3,24.0,30.14,WNW,291,1.0,6.0,51,0.00,,,0.00,weatherlink.com 1.10,2013-03-04 18:52:00,
2013-03-04 14:07:00,41.7,24.0,30.14,SE,124,4.0,7.0,50,0.00,,,0.00,weatherlink.com 1.10,2013-03-04 19:07:00,
2013-03-04 14:22:00,41.9,23.0,30.13,SE,132,3.0,4.0,48,0.00,,,0.00,weatherlink.com 1.10,2013-03-04 19:22:00,
2013-03-04 14:37:00,42.9,24.0,30.12,SSW,208,4.0,8.0,47,0.00,,,0.00,weatherlink.com 1.10,2013-03-04 19:37:00,
2013-03-04 14:52:00,42.9,24.0,30.12,SE,139,3.0,4.0,48,0.00,,,0.00,weatherlink.com 1.10,2013-03-04 19:52:00,
2013-03-04 15:07:00,43.2,25.0,30.12,South,190,2.0,5.0,48,0.00,,,0.00,weatherlink.com 1.10,2013-03-04 20:07:00,
2013-03-04 15:22:00,43.1,24.0,30.11,NNE,32,0.0,1.0,47,0.00,,,0.00,weatherlink.com 1.10,2013-03-04 20:22:00,
2013-03-04 15:38:00,43.6,24.0,30.11,North,358,1.0,4.0,47,0.00,,,0.00,weatherlink.com 1.10,2013-03-04 20:38:00,
2013-03-04 15:53:00,43.7,24.0,30.10,East,83,2.0,5.0,47,0.00,,,0.00,weatherlink.com 1.10,2013-03-04 20:53:00,
2013-03-04 16:08:00,43.4,24.0,30.10,ESE,104,2.0,4.0,46,0.00,,,0.00,weatherlink.com 1.10,2013-03-04 21:08:00,
2013-03-04 16:23:00,43.3,24.0,30.09,SSE,147,1.0,4.0,46,0.00,,,0.00,weatherlink.com 1.10,2013-03-04 21:23:00,
2013-03-04 16:38:00,43.0,23.0,30.09,SE,136,1.0,5.0,45,0.00,,,0.00,weatherlink.com 1.10,2013-03-04 21:38:00,
2013-03-04 16:53:00,43.2,24.0,30.09,ESE,119,1.0,4.0,46,0.00,,,0.00,weatherlink.com 1.10,2013-03-04 21:53:00,
2013-03-04 17:08:00,43.0,23.0,30.08,East,101,2.0,6.0,46,0.00,,,0.00,weatherlink.com 1.10,2013-03-04 22:08:00,
2013-03-04 17:23:00,42.7,24.0,30.08,SE,146,1.0,5.0,47,0.00,,,0.00,weatherlink.com 1.10,2013-03-04 22:23:00,
2013-03-04 17:38:00,42.8,24.0,30.08,SSE,155,3.0,6.0,48,0.00,,,0.00,weatherlink.com 1.10,2013-03-04 22:38:00,
2013-03-04 17:53:00,42.9,24.0,30.09,ESE,112,0.0,4.0,47,0.00,,,0.00,weatherlink.com 1.10,2013-03-04 22:53:00,
2013-03-04 18:08:00,42.9,24.0,30.09,East,83,2.0,3.0,48,0.00,,,0.00,weatherlink.com 1.10,2013-03-04 23:08:00,
2013-03-04 18:23:00,42.6,25.0,30.09,East,98,0.0,3.0,50,0.00,,,0.00,weatherlink.com 1.10,2013-03-04 23:23:00,
2013-03-04 18:38:00,41.9,26.0,30.09,ESE,115,2.0,3.0,53,0.00,,,0.00,weatherlink.com 1.10,2013-03-04 23:38:00,
2013-03-04 18:53:00,41.5,26.0,30.08,East,94,3.0,6.0,55,0.00,,,0.00,weatherlink.com 1.10,2013-03-04 23:53:00,
2013-03-04 19:08:00,41.1,28.0,30.08,ESE,107,1.0,4.0,59,0.00,,,0.00,weatherlink.com 1.10,2013-03-05 00:08:00,
2013-03-04 19:23:00,41.1,28.0,30.07,SE,133,1.0,6.0,59,0.00,,,0.00,weatherlink.com 1.10,2013-03-05 00:23:00,
2013-03-04 19:38:00,40.8,26.0,30.07,SSE,163,2.0,9.0,57,0.00,,,0.00,weatherlink.com 1.10,2013-03-05 00:38:00,
2013-03-04 19:53:00,40.7,26.0,30.06,East,101,3.0,10.0,57,0.00,,,0.00,weatherlink.com 1.10,2013-03-05 00:53:00,
2013-03-04 20:08:00,40.7,26.0,30.05,ESE,108,2.0,8.0,57,0.00,,,0.00,weatherlink.com 1.10,2013-03-05 01:08:00,
2013-03-04 20:23:00,40.7,26.0,30.06,SSE,147,3.0,7.0,57,0.00,,,0.00,weatherlink.com 1.10,2013-03-05 01:23:00,
2013-03-04 20:38:00,40.6,26.0,30.06,ESE,117,0.0,5.0,57,0.00,,,0.00,weatherlink.com 1.10,2013-03-05 01:38:00,
2013-03-04 20:53:00,40.4,26.0,30.07,ESE,120,0.0,2.0,58,0.00,,,0.00,weatherlink.com 1.10,2013-03-05 01:53:00,
2013-03-04 21:08:00,40.6,26.0,30.07,ESE,110,1.0,3.0,57,0.00,,,0.00,weatherlink.com 1.10,2013-03-05 02:08:00,
2013-03-04 21:23:00,40.2,26.0,30.07,SE,126,0.0,0.0,57,0.00,,,0.00,weatherlink.com 1.10,2013-03-05 02:23:00,
2013-03-04 21:38:00,40.0,26.0,30.08,South,170,0.0,2.0,57,0.00,,,0.00,weatherlink.com 1.10,2013-03-05 02:38:00,
2013-03-04 21:53:00,40.1,26.0,30.08,SE,136,0.0,2.0,57,0.00,,,0.00,weatherlink.com 1.10,2013-03-05 02:53:00,
2013-03-04 22:08:00,40.2,26.0,30.08,SE,131,2.0,3.0,57,0.00,,,0.00,weatherlink.com 1.10,2013-03-05 03:08:00,
2013-03-04 22:23:00,40.1,26.0,30.09,SE,129,0.0,2.0,57,0.00,,,0.00,weatherlink.com 1.10,2013-03-05 03:23:00,
2013-03-04 22:38:00,39.5,27.0,30.09,NNE,19,0.0,1.0,61,0.00,,,0.00,weatherlink.com 1.10,2013-03-05 03:38:00,
2013-03-04 22:53:00,39.3,26.0,30.08,NE,43,1.0,3.0,59,0.00,,,0.00,weatherlink.com 1.10,2013-03-05 03:53:00,
2013-03-04 23:08:00,39.3,26.0,30.07,NNE,22,2.0,4.0,60,0.00,,,0.00,weatherlink.com 1.10,2013-03-05 04:08:00,
2013-03-04 23:23:00,39.2,26.0,30.07,NE,36,1.0,3.0,60,0.00,,,0.00,weatherlink.com 1.10,2013-03-05 04:23:00,
2013-03-04 23:38:00,39.2,26.0,30.07,ENE,75,0.0,2.0,60,0.00,,,0.00,weatherlink.com 1.10,2013-03-05 04:38:00,
2013-03-04 23:53:00,39.1,27.0,30.07,NNE,26,0.0,3.0,61,0.00,,,0.00,weatherlink.com 1.10,2013-03-05 04:53:00,